Time,TemperatureF,DewpointF,PressureIn,WindDirection,WindDirectionDegrees,WindSpeedMPH,WindSpeedGustMPH,Humidity,HourlyPrecipIn,Conditions,Clouds,dailyrainin,SoftwareType,DateUTC
2013-05-08 00:00:00,55.4,53.7,29.95,West,271,0.0,0.0,94,0.00,,CLR,0.00,VWS V14.00,2013-05-08 05:00:00,
2013-05-08 00:05:00,55.3,53.6,29.95,West,271,0.0,0.0,94,0.00,,CLR,0.00,VWS V14.00,2013-05-08 05:05:00,
2013-05-08 00:10:00,55.1,53.4,29.95,West,271,0.0,0.0,94,0.00,,CLR,0.00,VWS V14.00,2013-05-08 05:10:00,
2013-05-08 00:15:00,55.0,53.3,29.95,West,271,0.0,0.0,94,0.00,,CLR,0.00,VWS V14.00,2013-05-08 05:15:00,
2013-05-08 00:20:00,54.9,53.2,29.95,West,271,0.0,0.0,94,0.00,,CLR,0.00,VWS V14.00,2013-05-08 05:20:00,
2013-05-08 00:25:00,54.7,53.0,29.95,West,271,0.0,0.0,94,0.00,,CLR,0.00,VWS V14.00,2013-05-08 05:25:00,
2013-05-08 00:30:00,54.6,52.9,29.95,West,271,0.0,0.0,94,0.00,,CLR,0.00,VWS V14.00,2013-05-08 05:30:00,
2013-05-08 00:35:00,54.5,52.8,29.95,West,271,0.0,0.0,94,0.00,,CLR,0.00,VWS V14.00,2013-05-08 05:35:00,
2013-05-08 00:40:00,54.4,52.7,29.95,West,271,0.0,0.0,94,0.00,,CLR,0.00,VWS V14.00,2013-05-08 05:40:00,
2013-05-08 00:45:00,54.3,52.6,29.94,West,271,0.0,0.0,94,0.00,,CLR,0.00,VWS V14.00,2013-05-08 05:45:00,
2013-05-08 00:50:00,54.2,52.5,29.94,West,271,0.0,0.0,94,0.00,,CLR,0.00,VWS V14.00,2013-05-08 05:50:00,
2013-05-08 00:55:00,54.2,52.5,29.94,West,271,0.0,0.0,94,0.00,,CLR,0.00,VWS V14.00,2013-05-08 05:55:00,
2013-05-08 01:00:00,54.1,52.4,29.94,West,271,0.0,0.0,94,0.00,,CLR,0.00,VWS V14.00,2013-05-08 06:00:00,
2013-05-08 01:05:00,54.0,52.6,29.94,West,271,0.0,0.0,95,0.00,,CLR,0.00,VWS V14.00,2013-05-08 06:05:00,
2013-05-08 01:10:00,53.9,52.5,29.94,West,271,0.0,0.0,95,0.00,,CLR,0.00,VWS V14.00,2013-05-08 06:10:00,
2013-05-08 01:15:00,53.8,52.4,29.94,West,271,0.0,0.0,95,0.00,,CLR,0.00,VWS V14.00,2013-05-08 06:15:00,
2013-05-08 01:20:00,53.7,52.3,29.94,West,271,0.0,0.0,95,0.00,,CLR,0.00,VWS V14.00,2013-05-08 06:20:00,
2013-05-08 01:25:00,53.5,51.8,29.94,West,271,0.0,0.0,94,0.00,,CLR,0.00,VWS V14.00,2013-05-08 06:25:00,
2013-05-08 01:30:00,53.5,52.1,29.94,West,271,0.0,0.0,95,0.00,,CLR,0.00,VWS V14.00,2013-05-08 06:30:00,
2013-05-08 01:35:00,53.5,52.1,29.94,West,271,0.0,0.0,95,0.00,,CLR,0.00,VWS V14.00,2013-05-08 06:35:00,
2013-05-08 01:40:00,53.4,52.0,29.94,West,271,0.0,0.0,95,0.00,,,0.00,VWS V14.00,2013-05-08 06:40:00,
2013-05-08 01:45:00,53.3,51.9,29.94,West,271,0.0,0.0,95,0.00,,,0.00,VWS V14.00,2013-05-08 06:45:00,
2013-05-08 01:50:00,53.2,51.8,29.94,West,271,0.0,0.0,95,0.00,,,0.00,VWS V14.00,2013-05-08 06:50:00,
2013-05-08 01:55:00,53.0,51.6,29.94,West,271,0.0,0.0,95,0.00,,,0.00,VWS V14.00,2013-05-08 06:55:00,
2013-05-08 02:00:00,52.8,51.4,29.94,West,271,0.0,0.0,95,0.00,,CLR,0.00,VWS V14.00,2013-05-08 07:00:00,
2013-05-08 02:05:00,52.7,51.3,29.94,West,271,0.0,0.0,95,0.00,,CLR,0.00,VWS V14.00,2013-05-08 07:05:00,
2013-05-08 02:10:00,52.6,51.2,29.94,West,271,0.0,0.0,95,0.00,,CLR,0.00,VWS V14.00,2013-05-08 07:10:00,
2013-05-08 02:15:00,52.5,51.1,29.94,West,271,0.0,0.0,95,0.00,,CLR,0.00,VWS V14.00,2013-05-08 07:15:00,
2013-05-08 02:20:00,52.4,51.0,29.94,West,271,0.0,0.0,95,0.00,,,0.00,VWS V14.00,2013-05-08 07:20:00,
2013-05-08 02:25:00,52.4,51.0,29.94,West,271,0.0,0.0,95,0.00,,,0.00,VWS V14.00,2013-05-08 07:25:00,
2013-05-08 02:30:00,52.0,50.6,29.94,West,271,0.0,3.0,95,0.00,,,0.00,VWS V14.00,2013-05-08 07:30:00,
2013-05-08 02:35:00,52.0,50.6,29.94,West,271,0.0,3.0,95,0.00,,,0.00,VWS V14.00,2013-05-08 07:35:00,
2013-05-08 02:40:00,51.8,50.4,29.94,West,271,0.0,3.0,95,0.00,,,0.00,VWS V14.00,2013-05-08 07:40:00,
2013-05-08 02:45:00,51.9,50.5,29.94,West,271,0.0,3.0,95,0.00,,,0.00,VWS V14.00,2013-05-08 07:45:00,
2013-05-08 02:50:00,52.0,50.6,29.94,West,271,0.0,3.0,95,0.00,,,0.00,VWS V14.00,2013-05-08 07:50:00,
2013-05-08 02:55:00,51.9,50.5,29.94,West,271,0.0,0.0,95,0.00,,,0.00,VWS V14.00,2013-05-08 07:55:00,
2013-05-08 03:00:00,51.9,50.5,29.94,West,271,0.0,0.0,95,0.00,,CLR,0.00,VWS V14.00,2013-05-08 08:00:00,
2013-05-08 03:05:00,51.9,50.5,29.94,West,271,0.0,0.0,95,0.00,,CLR,0.00,VWS V14.00,2013-05-08 08:05:00,
2013-05-08 03:10:00,51.9,50.5,29.94,West,271,0.0,0.0,95,0.00,,CLR,0.00,VWS V14.00,2013-05-08 08:10:00,
2013-05-08 03:15:00,51.8,50.4,29.94,West,271,0.0,0.0,95,0.00,,CLR,0.00,VWS V14.00,2013-05-08 08:15:00,
2013-05-08 03:20:00,51.8,50.4,29.95,West,271,0.0,0.0,95,0.00,,,0.00,VWS V14.00,2013-05-08 08:20:00,
2013-05-08 03:25:00,51.7,50.3,29.95,West,271,0.0,0.0,95,0.00,,,0.00,VWS V14.00,2013-05-08 08:25:00,
2013-05-08 03:30:00,51.6,50.2,29.95,West,271,0.0,0.0,95,0.00,,,0.00,VWS V14.00,2013-05-08 08:30:00,
2013-05-08 03:35:00,51.5,50.1,29.95,West,271,0.0,0.0,95,0.00,,,0.00,VWS V14.00,2013-05-08 08:35:00,
2013-05-08 03:40:00,51.5,50.1,29.95,West,271,0.0,0.0,95,0.00,,,0.00,VWS V14.00,2013-05-08 08:40:00,
2013-05-08 03:45:00,51.5,50.1,29.95,West,271,0.0,0.0,95,0.00,,,0.00,VWS V14.00,2013-05-08 08:45:00,
2013-05-08 03:50:00,51.5,50.1,29.95,West,271,0.0,0.0,95,0.00,,,0.00,VWS V14.00,2013-05-08 08:50:00,
2013-05-08 03:55:00,51.4,50.0,29.95,West,271,0.0,0.0,95,0.00,,,0.00,VWS V14.00,2013-05-08 08:55:00,
2013-05-08 04:00:00,51.4,50.0,29.95,West,271,0.0,0.0,95,0.00,,,0.00,VWS V14.00,2013-05-08 09:00:00,
2013-05-08 04:05:00,51.3,49.9,29.95,West,271,0.0,0.0,95,0.00,,,0.00,VWS V14.00,2013-05-08 09:05:00,
2013-05-08 04:10:00,51.2,49.8,29.95,West,271,0.0,0.0,95,0.00,,,0.00,VWS V14.00,2013-05-08 09:10:00,
2013-05-08 04:15:00,51.2,49.8,29.95,West,271,0.0,0.0,95,0.00,,,0.00,VWS V14.00,2013-05-08 09:15:00,
2013-05-08 04:20:00,51.1,49.7,29.95,West,271,0.0,0.0,95,0.00,,,0.00,VWS V14.00,2013-05-08 09:20:00,
2013-05-08 04:25:00,51.1,49.7,29.95,West,271,0.0,0.0,95,0.00,,,0.00,VWS V14.00,2013-05-08 09:25:00,
2013-05-08 04:30:00,51.0,49.9,29.96,West,271,0.0,0.0,96,0.00,,,0.00,VWS V14.00,2013-05-08 09:30:00,
2013-05-08 04:35:00,50.9,49.8,29.96,West,271,0.0,1.0,96,0.00,,,0.00,VWS V14.00,2013-05-08 09:35:00,
2013-05-08 04:40:00,50.8,49.4,29.96,West,271,0.0,1.0,95,0.00,,,0.00,VWS V14.00,2013-05-08 09:40:00,
2013-05-08 04:45:00,50.7,49.3,29.96,West,271,0.0,2.0,95,0.00,,,0.00,VWS V14.00,2013-05-08 09:45:00,
2013-05-08 04:50:00,50.6,49.2,29.96,West,271,0.0,3.0,95,0.00,,,0.00,VWS V14.00,2013-05-08 09:50:00,
2013-05-08 04:55:00,50.5,49.1,29.96,West,271,0.0,2.0,95,0.00,,,0.00,VWS V14.00,2013-05-08 09:55:00,
2013-05-08 05:00:00,50.5,49.1,29.96,West,271,0.0,2.0,95,0.00,,,0.00,VWS V14.00,2013-05-08 10:00:00,
2013-05-08 05:05:00,50.5,49.4,29.96,West,271,0.0,2.0,96,0.00,,,0.00,VWS V14.00,2013-05-08 10:05:00,
2013-05-08 05:10:00,50.6,49.5,29.97,West,271,0.0,2.0,96,0.00,,,0.00,VWS V14.00,2013-05-08 10:10:00,
2013-05-08 05:15:00,50.7,49.6,29.97,West,271,0.0,2.0,96,0.00,,,0.00,VWS V14.00,2013-05-08 10:15:00,
2013-05-08 05:20:00,50.7,49.6,29.97,West,271,0.0,2.0,96,0.00,,,0.00,VWS V14.00,2013-05-08 10:20:00,
2013-05-08 05:25:00,50.6,49.5,29.97,West,271,0.0,0.0,96,0.00,,,0.00,VWS V14.00,2013-05-08 10:25:00,
2013-05-08 05:30:00,50.5,49.4,29.97,West,271,0.0,0.0,96,0.00,,,0.00,VWS V14.00,2013-05-08 10:30:00,
2013-05-08 05:35:00,50.4,49.3,29.97,West,271,0.0,0.0,96,0.00,,,0.00,VWS V14.00,2013-05-08 10:35:00,
2013-05-08 05:40:00,50.3,49.2,29.97,West,271,0.0,0.0,96,0.00,,,0.00,VWS V14.00,2013-05-08 10:40:00,
2013-05-08 05:45:00,50.3,49.2,29.97,West,271,0.0,0.0,96,0.00,,,0.00,VWS V14.00,2013-05-08 10:45:00,
2013-05-08 05:50:00,50.3,49.2,29.97,West,271,0.0,0.0,96,0.00,,,0.00,VWS V14.00,2013-05-08 10:50:00,
2013-05-08 05:55:00,50.5,49.4,29.97,West,271,0.0,0.0,96,0.00,,,0.00,VWS V14.00,2013-05-08 10:55:00,
2013-05-08 06:00:00,50.5,49.4,29.97,West,271,0.0,0.0,96,0.00,,,0.00,VWS V14.00,2013-05-08 11:00:00,
2013-05-08 06:05:00,50.4,49.3,29.98,West,271,0.0,0.0,96,0.00,,,0.00,VWS V14.00,2013-05-08 11:05:00,
2013-05-08 06:10:00,50.4,49.3,29.98,West,271,0.0,0.0,96,0.00,,,0.00,VWS V14.00,2013-05-08 11:10:00,
2013-05-08 06:15:00,50.3,49.2,29.98,West,271,0.0,0.0,96,0.00,,,0.00,VWS V14.00,2013-05-08 11:15:00,
2013-05-08 06:20:00,50.3,49.2,29.98,West,271,0.0,0.0,96,0.00,,,0.00,VWS V14.00,2013-05-08 11:20:00,
2013-05-08 06:25:00,50.2,49.1,29.98,West,271,0.0,0.0,96,0.00,,,0.00,VWS V14.00,2013-05-08 11:25:00,
2013-05-08 06:30:00,50.3,49.2,29.99,West,271,0.0,0.0,96,0.00,,,0.00,VWS V14.00,2013-05-08 11:30:00,
2013-05-08 06:35:00,50.3,49.2,29.99,West,271,0.0,0.0,96,0.00,,,0.00,VWS V14.00,2013-05-08 11:35:00,
2013-05-08 06:40:00,50.6,49.5,29.99,West,271,0.0,0.0,96,0.00,,,0.00,VWS V14.00,2013-05-08 11:40:00,
2013-05-08 06:45:00,50.8,49.7,29.99,West,271,0.0,0.0,96,0.00,,,0.00,VWS V14.00,2013-05-08 11:45:00,
2013-05-08 06:50:00,50.9,49.8,29.99,South,191,0.0,0.0,96,0.00,,,0.00,VWS V14.00,2013-05-08 11:50:00,
2013-05-08 06:55:00,50.9,49.8,29.99,South,191,0.0,0.0,96,0.00,,,0.00,VWS V14.00,2013-05-08 11:55:00,
2013-05-08 07:00:00,51.1,50.0,30.00,South,191,0.0,0.0,96,0.00,,,0.00,VWS V14.00,2013-05-08 12:00:00,
2013-05-08 07:05:00,51.4,50.3,30.00,South,191,0.0,0.0,96,0.00,,,0.00,VWS V14.00,2013-05-08 12:05:00,
2013-05-08 07:10:00,51.9,50.8,30.00,South,191,0.0,0.0,96,0.00,,,0.00,VWS V14.00,2013-05-08 12:10:00,
2013-05-08 07:15:00,52.5,51.4,30.00,South,191,0.0,0.0,96,0.00,,,0.00,VWS V14.00,2013-05-08 12:15:00,
2013-05-08 07:20:00,53.2,52.1,30.00,South,191,0.0,0.0,96,0.00,,,0.00,VWS V14.00,2013-05-08 12:20:00,
2013-05-08 07:25:00,54.1,53.0,30.00,South,191,0.0,0.0,96,0.00,,,0.00,VWS V14.00,2013-05-08 12:25:00,
2013-05-08 07:30:00,54.9,53.8,30.00,South,191,0.0,0.0,96,0.00,,,0.00,VWS V14.00,2013-05-08 12:30:00,
2013-05-08 07:35:00,55.8,54.7,30.01,South,191,0.0,0.0,96,0.00,,,0.00,VWS V14.00,2013-05-08 12:35:00,
2013-05-08 07:40:00,56.5,55.4,30.01,South,191,0.0,0.0,96,0.00,,,0.00,VWS V14.00,2013-05-08 12:40:00,
2013-05-08 07:45:00,57.3,56.2,30.01,South,191,0.0,0.0,96,0.00,,,0.00,VWS V14.00,2013-05-08 12:45:00,
2013-05-08 07:50:00,58.0,56.9,30.01,South,191,0.0,1.0,96,0.00,,,0.00,VWS V14.00,2013-05-08 12:50:00,
2013-05-08 07:55:00,58.6,57.5,30.01,South,191,0.0,2.0,96,0.00,,,0.00,VWS V14.00,2013-05-08 12:55:00,
2013-05-08 08:00:00,59.1,58.0,30.01,South,191,0.0,2.0,96,0.00,,CLR,0.00,VWS V14.00,2013-05-08 13:00:00,
2013-05-08 08:05:00,59.6,58.5,30.01,SSW,198,1.0,3.0,96,0.00,,CLR,0.00,VWS V14.00,2013-05-08 13:05:00,
2013-05-08 08:10:00,60.1,59.0,30.01,SSW,198,0.0,3.0,96,0.00,,CLR,0.00,VWS V14.00,2013-05-08 13:10:00,
2013-05-08 08:15:00,60.2,59.1,30.01,WNW,284,2.0,5.0,96,0.00,,CLR,0.00,VWS V14.00,2013-05-08 13:15:00,
2013-05-08 08:20:00,60.5,59.4,30.01,NW,318,2.0,6.0,96,0.00,,CLR,0.00,VWS V14.00,2013-05-08 13:20:00,
2013-05-08 08:25:00,61.2,60.0,30.01,NW,311,0.0,4.0,96,0.00,,CLR,0.00,VWS V14.00,2013-05-08 13:25:00,
2013-05-08 08:30:00,62.1,60.7,30.01,NW,311,0.0,4.0,95,0.00,,CLR,0.00,VWS V14.00,2013-05-08 13:30:00,
2013-05-08 08:35:00,62.9,60.2,30.01,NW,311,4.0,4.0,91,0.00,,CLR,0.00,VWS V14.00,2013-05-08 13:35:00,
2013-05-08 08:40:00,63.8,60.2,30.01,NW,312,4.0,6.0,88,0.00,,CLR,0.00,VWS V14.00,2013-05-08 13:40:00,
2013-05-08 08:45:00,64.5,60.5,30.01,NW,312,1.0,6.0,87,0.00,,CLR,0.00,VWS V14.00,2013-05-08 13:45:00,
2013-05-08 08:50:00,65.3,59.7,30.01,NNW,338,2.0,6.0,82,0.00,,CLR,0.00,VWS V14.00,2013-05-08 13:50:00,
2013-05-08 08:55:00,66.2,60.2,30.01,NW,316,1.0,6.0,81,0.00,,CLR,0.00,VWS V14.00,2013-05-08 13:55:00,
2013-05-08 09:00:00,66.8,60.8,30.01,NW,316,0.0,6.0,81,0.00,,CLR,0.00,VWS V14.00,2013-05-08 14:00:00,
2013-05-08 09:05:00,67.2,60.8,30.01,NW,314,1.0,6.0,80,0.00,,CLR,0.00,VWS V14.00,2013-05-08 14:05:00,
2013-05-08 09:10:00,67.6,59.8,30.01,NW,314,0.0,6.0,76,0.00,,CLR,0.00,VWS V14.00,2013-05-08 14:10:00,
2013-05-08 09:15:00,68.3,60.5,30.01,NNE,26,0.0,6.0,76,0.00,,CLR,0.00,VWS V14.00,2013-05-08 14:15:00,
2013-05-08 09:20:00,69.1,61.6,30.01,NE,42,3.0,6.0,77,0.00,,CLR,0.00,VWS V14.00,2013-05-08 14:20:00,
2013-05-08 09:25:00,69.3,62.2,30.00,NE,35,1.0,1.0,78,0.00,,CLR,0.00,VWS V14.00,2013-05-08 14:25:00,
2013-05-08 09:30:00,70.1,60.3,30.00,North,360,3.0,5.0,71,0.00,,CLR,0.00,VWS V14.00,2013-05-08 14:30:00,
2013-05-08 09:35:00,70.4,60.6,30.00,NE,36,1.0,6.0,71,0.00,,CLR,0.00,VWS V14.00,2013-05-08 14:35:00,
2013-05-08 09:40:00,71.0,60.3,30.00,NNE,19,3.0,6.0,69,0.00,,CLR,0.00,VWS V14.00,2013-05-08 14:40:00,
2013-05-08 09:45:00,71.3,60.2,30.00,NE,42,5.0,6.0,68,0.00,,CLR,0.00,VWS V14.00,2013-05-08 14:45:00,
2013-05-08 09:50:00,71.9,60.8,30.00,NNW,345,4.0,6.0,68,0.00,,CLR,0.00,VWS V14.00,2013-05-08 14:50:00,
2013-05-08 09:55:00,72.2,61.1,30.00,NNE,29,4.0,5.0,68,0.00,,CLR,0.00,VWS V14.00,2013-05-08 14:55:00,
2013-05-08 10:00:00,72.4,60.8,30.00,NE,54,3.0,6.0,67,0.00,,CLR,0.00,VWS V14.00,2013-05-08 15:00:00,
2013-05-08 10:05:00,72.8,60.8,30.00,North,360,4.0,6.0,66,0.00,,CLR,0.00,VWS V14.00,2013-05-08 15:05:00,
2013-05-08 10:10:00,73.2,59.9,30.00,NW,313,1.0,6.0,63,0.00,,CLR,0.00,VWS V14.00,2013-05-08 15:10:00,
2013-05-08 10:15:00,73.3,60.4,30.00,NNE,18,3.0,7.0,64,0.00,,CLR,0.00,VWS V14.00,2013-05-08 15:15:00,
2013-05-08 10:20:00,73.6,58.4,30.00,North,355,4.0,9.0,59,0.00,,CLR,0.00,VWS V14.00,2013-05-08 15:20:00,
2013-05-08 10:25:00,73.9,60.5,30.00,WNW,292,3.0,9.0,63,0.00,,CLR,0.00,VWS V14.00,2013-05-08 15:25:00,
2013-05-08 10:30:00,74.1,59.3,30.00,NNW,338,6.0,9.0,60,0.00,,CLR,0.00,VWS V14.00,2013-05-08 15:30:00,
2013-05-08 10:35:00,74.4,58.7,30.01,NE,35,1.0,9.0,58,0.00,,CLR,0.00,VWS V14.00,2013-05-08 15:35:00,
2013-05-08 10:40:00,74.6,57.9,30.00,ENE,67,6.0,9.0,56,0.00,,CLR,0.00,VWS V14.00,2013-05-08 15:40:00,
2013-05-08 10:45:00,75.0,57.2,30.00,NE,37,7.0,9.0,54,0.00,,CLR,0.00,VWS V14.00,2013-05-08 15:45:00,
2013-05-08 10:50:00,75.3,58.5,30.00,ENE,73,0.0,9.0,56,0.00,,CLR,0.00,VWS V14.00,2013-05-08 15:50:00,
2013-05-08 10:55:00,75.5,56.7,30.00,North,10,3.0,9.0,52,0.00,,CLR,0.00,VWS V14.00,2013-05-08 15:55:00,
2013-05-08 11:00:00,75.5,58.7,30.00,NNE,21,4.0,9.0,56,0.00,,CLR,0.00,VWS V14.00,2013-05-08 16:00:00,
2013-05-08 11:04:00,75.6,55.7,30.00,NW,309,2.0,9.0,50,0.00,,CLR,0.00,VWS V14.00,2013-05-08 16:04:00,
2013-05-08 11:09:00,75.8,54.7,30.00,ENE,58,2.0,9.0,48,0.00,,CLR,0.00,VWS V14.00,2013-05-08 16:09:00,
2013-05-08 11:14:00,76.0,55.5,30.00,North,350,3.0,9.0,49,0.00,,CLR,0.00,VWS V14.00,2013-05-08 16:14:00,
2013-05-08 11:19:00,76.1,54.4,30.00,NE,42,2.0,9.0,47,0.00,,CLR,0.00,VWS V14.00,2013-05-08 16:19:00,
2013-05-08 11:24:00,76.2,57.8,30.01,NNE,19,4.0,7.0,53,0.00,,CLR,0.00,VWS V14.00,2013-05-08 16:24:00,
2013-05-08 11:29:00,76.4,58.0,30.01,ENE,69,2.0,7.0,53,0.00,,CLR,0.00,VWS V14.00,2013-05-08 16:29:00,
2013-05-08 11:30:00,76.2,55.1,30.01,NNW,340,3.0,9.0,48,0.00,,OVC003,0.00,VWS V14.00,2013-05-08 16:30:00,
2013-05-08 11:34:00,76.5,56.5,30.00,NE,44,5.0,7.0,50,0.00,,CLR,0.00,VWS V14.00,2013-05-08 16:34:00,
2013-05-08 11:39:00,76.7,56.7,30.00,WSW,248,2.0,8.0,50,0.00,,CLR,0.00,VWS V14.00,2013-05-08 16:39:00,
2013-05-08 11:44:00,76.7,60.8,30.00,WNW,288,8.0,8.0,58,0.00,,CLR,0.00,VWS V14.00,2013-05-08 16:44:00,
2013-05-08 11:49:00,76.3,57.4,30.00,NW,319,3.0,8.0,52,0.00,,CLR,0.00,VWS V14.00,2013-05-08 16:49:00,
2013-05-08 11:54:00,76.6,54.3,30.00,NNE,17,0.0,8.0,46,0.00,,CLR,0.00,VWS V14.00,2013-05-08 16:54:00,
2013-05-08 11:59:00,76.9,54.6,30.00,NW,311,1.0,8.0,46,0.00,,CLR,0.00,VWS V14.00,2013-05-08 16:59:00,
2013-05-08 12:00:00,76.4,55.8,30.00,NW,304,3.0,8.0,49,0.00,,OVC003,0.00,VWS V14.00,2013-05-08 17:00:00,
2013-05-08 12:04:00,77.3,56.7,30.00,ESE,115,1.0,8.0,49,0.00,,CLR,0.00,VWS V14.00,2013-05-08 17:04:00,
2013-05-08 12:09:00,77.1,55.3,30.00,NNE,29,3.0,8.0,47,0.00,,CLR,0.00,VWS V14.00,2013-05-08 17:09:00,
2013-05-08 12:14:00,77.3,55.5,29.99,North,350,5.0,8.0,47,0.00,,CLR,0.00,VWS V14.00,2013-05-08 17:14:00,
2013-05-08 12:19:00,77.4,55.0,29.99,WNW,295,4.0,8.0,46,0.00,,CLR,0.00,VWS V14.00,2013-05-08 17:19:00,
2013-05-08 12:24:00,77.5,53.9,29.99,West,273,7.0,7.0,44,0.00,,CLR,0.00,VWS V14.00,2013-05-08 17:24:00,
2013-05-08 12:29:00,77.3,56.1,29.99,West,274,5.0,8.0,48,0.00,,CLR,0.00,VWS V14.00,2013-05-08 17:29:00,
2013-05-08 12:30:00,77.5,56.3,29.99,North,5,2.0,8.0,48,0.00,,OVC003,0.00,VWS V14.00,2013-05-08 17:30:00,
2013-05-08 12:34:00,77.1,54.2,29.99,North,360,3.0,8.0,45,0.00,,CLR,0.00,VWS V14.00,2013-05-08 17:34:00,
2013-05-08 12:39:00,77.5,55.7,29.99,NE,37,1.0,8.0,47,0.00,,CLR,0.00,VWS V14.00,2013-05-08 17:39:00,
2013-05-08 12:44:00,77.7,57.6,29.98,WSW,237,2.0,8.0,50,0.00,,CLR,0.00,VWS V14.00,2013-05-08 17:44:00,
2013-05-08 12:49:00,77.6,55.8,29.98,NNW,328,0.0,8.0,47,0.00,,CLR,0.00,VWS V14.00,2013-05-08 17:49:00,
2013-05-08 12:54:00,78.0,55.6,29.98,NE,50,4.0,6.0,46,0.00,,CLR,0.00,VWS V14.00,2013-05-08 17:54:00,
2013-05-08 12:59:00,78.4,55.3,29.98,WNW,292,5.0,7.0,45,0.00,,CLR,0.00,VWS V14.00,2013-05-08 17:59:00,
2013-05-08 13:00:00,77.7,54.7,29.98,NE,52,1.0,8.0,45,0.00,,OVC003,0.00,VWS V14.00,2013-05-08 18:00:00,
2013-05-08 13:04:00,78.0,53.7,29.98,WNW,282,0.0,7.0,43,0.00,,CLR,0.00,VWS V14.00,2013-05-08 18:04:00,
2013-05-08 13:09:00,78.1,54.4,29.98,WSW,244,7.0,8.0,44,0.00,,CLR,0.00,VWS V14.00,2013-05-08 18:09:00,
2013-05-08 13:14:00,77.8,52.9,29.98,WSW,242,5.0,8.0,42,0.00,,CLR,0.00,VWS V14.00,2013-05-08 18:14:00,
2013-05-08 13:19:00,77.6,54.0,29.98,West,279,6.0,8.0,44,0.00,,CLR,0.00,VWS V14.00,2013-05-08 18:19:00,
2013-05-08 13:24:00,77.7,52.2,29.98,WNW,287,3.0,8.0,41,0.00,,CLR,0.00,VWS V14.00,2013-05-08 18:24:00,
2013-05-08 13:29:00,77.9,54.3,29.98,West,259,1.0,8.0,44,0.00,,CLR,0.00,VWS V14.00,2013-05-08 18:29:00,
2013-05-08 13:30:00,77.6,54.6,29.98,West,266,4.0,8.0,45,0.00,,OVC003,0.00,VWS V14.00,2013-05-08 18:30:00,
2013-05-08 13:34:00,78.2,52.6,29.98,West,261,0.0,8.0,41,0.00,,CLR,0.00,VWS V14.00,2013-05-08 18:34:00,
2013-05-08 13:39:00,78.8,53.1,29.98,ENE,57,1.0,8.0,41,0.00,,CLR,0.00,VWS V14.00,2013-05-08 18:39:00,
2013-05-08 13:44:00,79.2,53.5,29.97,NNW,340,5.0,8.0,41,0.00,,CLR,0.00,VWS V14.00,2013-05-08 18:44:00,
2013-05-08 13:49:00,79.5,57.5,29.97,West,262,4.0,8.0,47,0.00,,CLR,0.00,VWS V14.00,2013-05-08 18:49:00,
2013-05-08 13:54:00,79.0,55.2,29.97,West,261,4.0,8.0,44,0.00,,CLR,0.00,VWS V14.00,2013-05-08 18:54:00,
2013-05-08 13:59:00,78.6,53.6,29.97,West,273,3.0,8.0,42,0.00,,CLR,0.00,VWS V14.00,2013-05-08 18:59:00,
2013-05-08 14:00:00,79.4,52.3,29.97,West,262,2.0,8.0,39,0.00,,OVC003,0.00,VWS V14.00,2013-05-08 19:00:00,
2013-05-08 14:04:00,78.8,55.1,29.97,West,273,3.0,8.0,44,0.00,,CLR,0.00,VWS V14.00,2013-05-08 19:04:00,
2013-05-08 14:09:00,79.1,52.7,29.97,WNW,291,4.0,8.0,40,0.00,,CLR,0.00,VWS V14.00,2013-05-08 19:09:00,
2013-05-08 14:14:00,78.9,50.4,29.97,ENE,58,3.0,8.0,37,0.00,,CLR,0.00,VWS V14.00,2013-05-08 19:14:00,
2013-05-08 14:19:00,79.4,53.7,29.97,NNE,28,3.0,8.0,41,0.00,,SCT080,0.00,VWS V14.00,2013-05-08 19:19:00,
2013-05-08 14:24:00,79.1,51.3,29.97,West,280,5.0,10.0,38,0.00,,SCT080,0.00,VWS V14.00,2013-05-08 19:24:00,
2013-05-08 14:29:00,79.1,51.3,29.97,West,271,0.0,10.0,38,0.00,,SCT080,0.00,VWS V14.00,2013-05-08 19:29:00,
2013-05-08 14:30:00,79.5,53.8,29.97,WSW,245,5.0,8.0,41,0.00,,OVC003,0.00,VWS V14.00,2013-05-08 19:30:00,
2013-05-08 14:34:00,79.4,51.6,29.97,WSW,248,3.0,10.0,38,0.00,,SCT080,0.00,VWS V14.00,2013-05-08 19:34:00,
2013-05-08 14:39:00,79.7,53.9,29.97,WSW,247,5.0,10.0,41,0.00,,BKN075,0.00,VWS V14.00,2013-05-08 19:39:00,
2013-05-08 14:44:00,79.6,55.8,29.97,WNW,283,8.0,10.0,44,0.00,,BKN075,0.00,VWS V14.00,2013-05-08 19:44:00,
2013-05-08 14:49:00,79.3,54.2,29.97,NW,316,3.0,10.0,42,0.00,,BKN075,0.00,VWS V14.00,2013-05-08 19:49:00,
2013-05-08 14:54:00,79.1,54.7,29.97,West,261,6.0,12.0,43,0.00,,BKN075,0.00,VWS V14.00,2013-05-08 19:54:00,
2013-05-08 14:59:00,78.7,53.7,29.97,WSW,256,4.0,12.0,42,0.00,,SCT075,0.00,VWS V14.00,2013-05-08 19:59:00,
2013-05-08 15:00:00,79.4,53.7,29.97,NW,311,4.0,10.0,41,0.00,,OVC003,0.00,VWS V14.00,2013-05-08 20:00:00,
2013-05-08 15:04:00,79.2,50.7,29.96,NNW,331,1.0,12.0,37,0.00,,SCT075,0.00,VWS V14.00,2013-05-08 20:04:00,
2013-05-08 15:09:00,79.4,56.2,29.96,NW,325,3.0,12.0,45,0.00,,SCT075,0.00,VWS V14.00,2013-05-08 20:09:00,
2013-05-08 15:14:00,79.8,57.2,29.96,North,10,0.0,12.0,46,0.00,,SCT075,0.00,VWS V14.00,2013-05-08 20:14:00,
2013-05-08 15:19:00,79.9,53.5,29.95,West,266,9.0,12.0,40,0.00,,CLR,0.00,VWS V14.00,2013-05-08 20:19:00,
2013-05-08 15:24:00,79.2,54.2,29.95,West,259,5.0,8.0,42,0.00,,CLR,0.00,VWS V14.00,2013-05-08 20:24:00,
2013-05-08 15:29:00,79.1,52.7,29.95,West,261,5.0,8.0,40,0.00,,CLR,0.00,VWS V14.00,2013-05-08 20:29:00,
2013-05-08 15:30:00,79.6,51.8,29.96,WSW,246,5.0,12.0,38,0.00,,OVC003,0.00,VWS V14.00,2013-05-08 20:30:00,
2013-05-08 15:34:00,79.2,52.1,29.95,WNW,292,5.0,9.0,39,0.00,,CLR,0.00,VWS V14.00,2013-05-08 20:34:00,
2013-05-08 15:39:00,79.1,51.3,29.95,West,274,6.0,9.0,38,0.00,,SCT085,0.00,VWS V14.00,2013-05-08 20:39:00,
2013-05-08 15:44:00,79.2,54.2,29.95,West,273,5.0,9.0,42,0.00,,SCT085,0.00,VWS V14.00,2013-05-08 20:44:00,
2013-05-08 15:49:00,79.4,51.6,29.95,WSW,250,7.0,9.0,38,0.00,,SCT085,0.00,VWS V14.00,2013-05-08 20:49:00,
2013-05-08 15:54:00,79.4,54.3,29.95,WSW,248,2.0,7.0,42,0.00,,SCT085,0.00,VWS V14.00,2013-05-08 20:54:00,
2013-05-08 15:59:00,79.5,52.4,29.95,West,269,0.0,7.0,39,0.00,,SCT085,0.00,VWS V14.00,2013-05-08 20:59:00,
2013-05-08 16:00:00,79.4,55.0,29.95,West,272,3.0,9.0,43,0.00,,OVC003,0.00,VWS V14.00,2013-05-08 21:00:00,
2013-05-08 16:04:00,79.6,51.8,29.95,West,264,0.0,7.0,38,0.00,,CLR,0.00,VWS V14.00,2013-05-08 21:04:00,
2013-05-08 16:09:00,79.6,55.8,29.94,WSW,252,2.0,7.0,44,0.00,,CLR,0.00,VWS V14.00,2013-05-08 21:09:00,
2013-05-08 16:14:00,79.5,54.4,29.94,West,261,1.0,7.0,42,0.00,,CLR,0.00,VWS V14.00,2013-05-08 21:14:00,
2013-05-08 16:19:00,79.6,52.5,29.94,SW,223,2.0,7.0,39,0.00,,CLR,0.00,VWS V14.00,2013-05-08 21:19:00,
2013-05-08 16:24:00,79.8,53.4,29.94,SW,223,1.0,3.0,40,0.00,,CLR,0.00,VWS V14.00,2013-05-08 21:24:00,
2013-05-08 16:29:00,79.7,58.9,29.94,WSW,254,3.0,5.0,49,0.00,,CLR,0.00,VWS V14.00,2013-05-08 21:29:00,
2013-05-08 16:30:00,79.7,55.9,29.94,SW,223,0.0,7.0,44,0.00,,OVC003,0.00,VWS V14.00,2013-05-08 21:30:00,
2013-05-08 16:34:00,79.6,55.8,29.94,West,268,6.0,7.0,44,0.00,,CLR,0.00,VWS V14.00,2013-05-08 21:34:00,
2013-05-08 16:39:00,79.1,52.0,29.94,WSW,252,2.0,8.0,39,0.00,,CLR,0.00,VWS V14.00,2013-05-08 21:39:00,
2013-05-08 16:44:00,78.9,58.1,29.94,WSW,243,4.0,8.0,49,0.00,,CLR,0.00,VWS V14.00,2013-05-08 21:44:00,
2013-05-08 16:49:00,78.9,51.2,29.94,West,261,3.0,8.0,38,0.00,,CLR,0.00,VWS V14.00,2013-05-08 21:49:00,
2013-05-08 16:54:00,79.1,52.0,29.94,West,279,4.0,5.0,39,0.00,,CLR,0.00,VWS V14.00,2013-05-08 21:54:00,
2013-05-08 16:59:00,79.3,52.9,29.93,West,278,2.0,5.0,40,0.00,,CLR,0.00,VWS V14.00,2013-05-08 21:59:00,
2013-05-08 17:00:00,79.0,52.0,29.94,West,261,0.0,8.0,39,0.00,,OVC003,0.00,VWS V14.00,2013-05-08 22:00:00,
2013-05-08 17:04:00,79.4,51.6,29.94,WNW,298,2.0,5.0,38,0.00,,CLR,0.00,VWS V14.00,2013-05-08 22:04:00,
2013-05-08 17:09:00,78.8,53.8,29.94,WSW,252,6.0,9.0,42,0.00,,CLR,0.00,VWS V14.00,2013-05-08 22:09:00,
2013-05-08 17:14:00,78.0,51.1,29.94,West,270,3.0,9.0,39,0.00,,CLR,0.00,VWS V14.00,2013-05-08 22:14:00,
2013-05-08 17:19:00,77.6,52.7,29.93,West,269,3.0,9.0,42,0.00,,CLR,0.00,VWS V14.00,2013-05-08 22:19:00,
2013-05-08 17:24:00,77.4,53.2,29.93,West,269,1.0,3.0,43,0.00,,CLR,0.00,VWS V14.00,2013-05-08 22:24:00,
2013-05-08 17:29:00,77.1,54.8,29.93,West,269,0.0,3.0,46,0.00,,CLR,0.00,VWS V14.00,2013-05-08 22:29:00,
2013-05-08 17:30:00,77.5,53.9,29.93,West,269,0.0,9.0,44,0.00,,OVC003,0.00,VWS V14.00,2013-05-08 22:30:00,
2013-05-08 17:34:00,77.1,54.2,29.93,West,269,0.0,4.0,45,0.00,,CLR,0.00,VWS V14.00,2013-05-08 22:34:00,
2013-05-08 17:39:00,77.2,54.2,29.93,West,269,0.0,4.0,45,0.00,,CLR,0.00,VWS V14.00,2013-05-08 22:39:00,
2013-05-08 17:44:00,77.4,53.2,29.93,West,269,0.0,6.0,43,0.00,,CLR,0.00,VWS V14.00,2013-05-08 22:44:00,
2013-05-08 17:49:00,76.6,54.3,29.93,West,269,1.0,6.0,46,0.00,,CLR,0.00,VWS V14.00,2013-05-08 22:49:00,
2013-05-08 17:53:00,76.0,55.5,29.93,West,269,0.0,1.0,49,0.00,,CLR,0.00,VWS V14.00,2013-05-08 22:53:00,
2013-05-08 17:58:00,75.5,55.6,29.93,West,269,0.0,1.0,50,0.00,,CLR,0.00,VWS V14.00,2013-05-08 22:58:00,
2013-05-08 18:00:00,76.3,54.6,29.93,West,269,0.0,6.0,47,0.00,,OVC003,0.00,VWS V14.00,2013-05-08 23:00:00,
2013-05-08 18:03:00,75.1,56.3,29.93,West,269,0.0,1.0,52,0.00,,CLR,0.00,VWS V14.00,2013-05-08 23:03:00,
2013-05-08 18:08:00,74.8,56.5,29.93,West,269,0.0,1.0,53,0.00,,CLR,0.00,VWS V14.00,2013-05-08 23:08:00,
2013-05-08 18:13:00,74.7,55.9,29.93,West,269,0.0,1.0,52,0.00,,CLR,0.00,VWS V14.00,2013-05-08 23:13:00,
2013-05-08 18:18:00,74.6,55.3,29.93,West,269,0.0,1.0,51,0.00,,CLR,0.00,VWS V14.00,2013-05-08 23:18:00,
2013-05-08 18:23:00,74.5,55.2,29.93,West,269,0.0,0.0,51,0.00,,CLR,0.00,VWS V14.00,2013-05-08 23:23:00,
2013-05-08 18:28:00,74.4,55.1,29.93,West,269,0.0,0.0,51,0.00,,CLR,0.00,VWS V14.00,2013-05-08 23:28:00,
2013-05-08 18:30:00,74.6,55.3,29.93,West,269,0.0,1.0,51,0.00,,OVC003,0.00,VWS V14.00,2013-05-08 23:30:00,
2013-05-08 18:33:00,74.1,54.8,29.93,West,269,0.0,0.0,51,0.00,,CLR,0.00,VWS V14.00,2013-05-08 23:33:00,
2013-05-08 18:38:00,73.8,54.6,29.93,West,269,0.0,0.0,51,0.00,,CLR,0.00,VWS V14.00,2013-05-08 23:38:00,
2013-05-08 18:43:00,73.7,56.5,29.93,West,269,0.0,0.0,55,0.00,,CLR,0.00,VWS V14.00,2013-05-08 23:43:00,
2013-05-08 18:48:00,73.6,58.9,29.93,West,269,0.0,0.0,60,0.00,,CLR,0.00,VWS V14.00,2013-05-08 23:48:00,
2013-05-08 18:53:00,73.4,56.3,29.93,West,269,0.0,0.0,55,0.00,,CLR,0.00,VWS V14.00,2013-05-08 23:53:00,
2013-05-08 18:58:00,72.9,55.3,29.93,West,269,0.0,0.0,54,0.00,,CLR,0.00,VWS V14.00,2013-05-08 23:58:00,
2013-05-08 19:00:00,73.5,56.9,29.93,West,269,0.0,0.0,56,0.00,,OVC003,0.00,VWS V14.00,2013-05-09 00:00:00,
2013-05-08 19:03:00,72.3,55.7,29.93,West,269,0.0,0.0,56,0.00,,CLR,0.00,VWS V14.00,2013-05-09 00:03:00,
2013-05-08 19:08:00,72.0,56.0,29.93,West,269,0.0,0.0,57,0.00,,CLR,0.00,VWS V14.00,2013-05-09 00:08:00,
2013-05-08 19:13:00,71.7,55.7,29.93,West,269,0.0,0.0,57,0.00,,CLR,0.00,VWS V14.00,2013-05-09 00:13:00,
2013-05-08 19:18:00,71.4,55.9,29.93,West,269,0.0,0.0,58,0.00,,CLR,0.00,VWS V14.00,2013-05-09 00:18:00,
2013-05-08 19:23:00,71.1,56.5,29.93,West,269,0.0,0.0,60,0.00,,CLR,0.00,VWS V14.00,2013-05-09 00:23:00,
2013-05-08 19:28:00,70.8,56.2,29.93,West,269,0.0,0.0,60,0.00,,CLR,0.00,VWS V14.00,2013-05-09 00:28:00,
2013-05-08 19:30:00,71.3,56.2,29.93,West,269,0.0,0.0,59,0.00,,OVC003,0.00,VWS V14.00,2013-05-09 00:30:00,
2013-05-08 19:33:00,70.4,56.8,29.93,West,269,0.0,0.0,62,0.00,,CLR,0.00,VWS V14.00,2013-05-09 00:33:00,
2013-05-08 19:38:00,69.9,56.8,29.94,West,269,0.0,0.0,63,0.00,,CLR,0.00,VWS V14.00,2013-05-09 00:38:00,
2013-05-08 19:43:00,69.6,56.9,29.94,West,269,0.0,0.0,64,0.00,,CLR,0.00,VWS V14.00,2013-05-09 00:43:00,
2013-05-08 19:48:00,69.3,57.0,29.94,West,269,0.0,0.0,65,0.00,,CLR,0.00,VWS V14.00,2013-05-09 00:48:00,
2013-05-08 19:53:00,68.9,57.1,29.94,West,269,0.0,0.0,66,0.00,,CLR,0.00,VWS V14.00,2013-05-09 00:53:00,
2013-05-08 19:58:00,68.3,56.9,29.94,West,269,0.0,0.0,67,0.00,,CLR,0.00,VWS V14.00,2013-05-09 00:58:00,
2013-05-08 20:00:00,69.1,57.3,29.94,West,269,0.0,0.0,66,0.00,,OVC003,0.00,VWS V14.00,2013-05-09 01:00:00,
2013-05-08 20:03:00,67.7,56.4,29.94,West,269,0.0,0.0,67,0.00,,SCT120,0.00,VWS V14.00,2013-05-09 01:03:00,
2013-05-08 20:08:00,67.5,57.4,29.94,West,269,0.0,0.0,70,0.00,,SCT120,0.00,VWS V14.00,2013-05-09 01:08:00,
2013-05-08 20:13:00,67.1,58.5,29.94,West,269,0.0,0.0,74,0.00,,SCT120,0.00,VWS V14.00,2013-05-09 01:13:00,
2013-05-08 20:18:00,66.7,57.8,29.94,West,269,0.0,0.0,73,0.00,,SCT110,0.00,VWS V14.00,2013-05-09 01:18:00,
2013-05-08 20:23:00,66.1,57.6,29.94,West,269,0.0,0.0,74,0.00,,SCT110,0.00,VWS V14.00,2013-05-09 01:23:00,
2013-05-08 20:28:00,65.8,57.7,29.94,West,269,0.0,0.0,75,0.00,,SCT110,0.00,VWS V14.00,2013-05-09 01:28:00,
2013-05-08 20:30:00,66.3,57.4,29.94,West,269,0.0,0.0,73,0.00,,OVC003,0.00,VWS V14.00,2013-05-09 01:30:00,
2013-05-08 20:33:00,65.5,59.5,29.94,West,269,0.0,0.0,81,0.00,,SCT110,0.00,VWS V14.00,2013-05-09 01:33:00,
2013-05-08 20:38:00,65.1,59.1,29.94,West,269,0.0,0.0,81,0.00,,BKN110,0.00,VWS V14.00,2013-05-09 01:38:00,
2013-05-08 20:43:00,64.8,58.8,29.94,West,269,0.0,0.0,81,0.00,,BKN110,0.00,VWS V14.00,2013-05-09 01:43:00,
2013-05-08 20:48:00,64.5,58.9,29.94,West,269,0.0,0.0,82,0.00,,BKN110,0.00,VWS V14.00,2013-05-09 01:48:00,
2013-05-08 20:53:00,64.1,58.8,29.94,West,269,0.0,0.0,83,0.00,,BKN110,0.00,VWS V14.00,2013-05-09 01:53:00,
2013-05-08 20:58:00,63.7,58.5,29.95,West,269,0.0,0.0,83,0.00,,SCT110,0.00,VWS V14.00,2013-05-09 01:58:00,
2013-05-08 21:00:00,64.3,59.0,29.94,West,269,0.0,0.0,83,0.00,,OVC003,0.00,VWS V14.00,2013-05-09 02:00:00,
2013-05-08 21:03:00,63.4,58.2,29.95,West,269,0.0,0.0,83,0.00,,SCT110,0.00,VWS V14.00,2013-05-09 02:03:00,
2013-05-08 21:08:00,63.1,58.5,29.95,West,269,0.0,0.0,85,0.00,,SCT110,0.00,VWS V14.00,2013-05-09 02:08:00,
2013-05-08 21:13:00,62.9,58.3,29.95,West,269,0.0,0.0,85,0.00,,SCT110,0.00,VWS V14.00,2013-05-09 02:13:00,
2013-05-08 21:18:00,62.8,58.6,29.95,West,269,0.0,0.0,86,0.00,,SCT110,0.00,VWS V14.00,2013-05-09 02:18:00,
2013-05-08 21:23:00,62.6,58.4,29.95,West,269,0.0,0.0,86,0.00,,SCT120,0.00,VWS V14.00,2013-05-09 02:23:00,
2013-05-08 21:28:00,62.4,58.2,29.96,West,269,0.0,0.0,86,0.00,,SCT120,0.00,VWS V14.00,2013-05-09 02:28:00,
2013-05-08 21:30:00,62.7,58.5,29.95,West,269,0.0,0.0,86,0.00,,OVC003,0.00,VWS V14.00,2013-05-09 02:30:00,
2013-05-08 21:33:00,62.2,58.0,29.96,West,269,0.0,0.0,86,0.00,,SCT120,0.00,VWS V14.00,2013-05-09 02:33:00,
2013-05-08 21:38:00,62.0,58.1,29.96,West,269,0.0,0.0,87,0.00,,SCT120,0.00,VWS V14.00,2013-05-09 02:38:00,
2013-05-08 21:43:00,61.9,58.0,29.96,West,269,0.0,0.0,87,0.00,,OVC120,0.00,VWS V14.00,2013-05-09 02:43:00,
2013-05-08 21:48:00,61.8,57.9,29.96,West,269,0.0,0.0,87,0.00,,OVC120,0.00,VWS V14.00,2013-05-09 02:48:00,
2013-05-08 21:53:00,61.8,58.2,29.96,West,269,0.0,0.0,88,0.00,,OVC120,0.00,VWS V14.00,2013-05-09 02:53:00,
2013-05-08 21:58:00,61.8,58.2,29.96,West,269,0.0,0.0,88,0.00,,OVC120,0.00,VWS V14.00,2013-05-09 02:58:00,
2013-05-08 22:00:00,61.8,58.2,29.96,West,269,0.0,0.0,88,0.00,,OVC003,0.00,VWS V14.00,2013-05-09 03:00:00,
2013-05-08 22:03:00,61.9,58.3,29.96,West,269,0.0,0.0,88,0.00,,OVC085,0.00,VWS V14.00,2013-05-09 03:03:00,
2013-05-08 22:08:00,62.0,58.7,29.96,West,269,0.0,0.0,89,0.00,,OVC085,0.00,VWS V14.00,2013-05-09 03:08:00,
2013-05-08 22:13:00,62.0,58.7,29.96,West,269,0.0,0.0,89,0.00,,OVC085,0.00,VWS V14.00,2013-05-09 03:13:00,
2013-05-08 22:18:00,62.1,58.8,29.96,West,269,0.0,0.0,89,0.00,,OVC085,0.00,VWS V14.00,2013-05-09 03:18:00,
2013-05-08 22:23:00,62.1,58.8,29.96,West,269,0.0,0.0,89,0.00,,OVC085,0.00,VWS V14.00,2013-05-09 03:23:00,
2013-05-08 22:28:00,62.2,58.9,29.96,West,269,0.0,0.0,89,0.00,,OVC085,0.00,VWS V14.00,2013-05-09 03:28:00,
2013-05-08 22:30:00,62.1,58.8,29.96,West,269,0.0,0.0,89,0.00,,OVC003,0.00,VWS V14.00,2013-05-09 03:30:00,
2013-05-08 22:33:00,62.2,58.9,29.96,West,269,0.0,0.0,89,0.00,,OVC085,0.00,VWS V14.00,2013-05-09 03:33:00,
2013-05-08 22:38:00,62.2,58.9,29.96,West,269,0.0,0.0,89,0.00,,OVC085,0.00,VWS V14.00,2013-05-09 03:38:00,
2013-05-08 22:43:00,62.3,59.3,29.95,West,269,0.0,0.0,90,0.00,,OVC085,0.00,VWS V14.00,2013-05-09 03:43:00,
2013-05-08 22:48:00,62.3,59.3,29.95,West,269,0.0,2.0,90,0.00,,OVC085,0.00,VWS V14.00,2013-05-09 03:48:00,
2013-05-08 22:53:00,62.2,59.2,29.95,West,269,0.0,0.0,90,0.00,,OVC085,0.00,VWS V14.00,2013-05-09 03:53:00,
2013-05-08 22:58:00,62.2,59.2,29.95,West,269,0.0,0.0,90,0.00,,OVC085,0.00,VWS V14.00,2013-05-09 03:58:00,
2013-05-08 23:00:00,62.3,59.3,29.95,West,269,0.0,2.0,90,0.00,,OVC003,0.00,VWS V14.00,2013-05-09 04:00:00,
2013-05-08 23:01:00,62.2,59.2,29.95,West,269,0.0,0.0,90,0.00,,OVC085,0.00,VWS V14.00,2013-05-09 04:01:00,
2013-05-08 23:06:00,62.2,59.2,29.95,West,269,0.0,0.0,90,0.00,,OVC085,0.00,VWS V14.00,2013-05-09 04:06:00,
2013-05-08 23:11:00,62.3,59.3,29.95,West,269,0.0,1.0,90,0.00,,OVC085,0.00,VWS V14.00,2013-05-09 04:11:00,
2013-05-08 23:16:00,62.2,58.9,29.95,West,269,0.0,1.0,89,0.00,,OVC085,0.00,VWS V14.00,2013-05-09 04:16:00,
2013-05-08 23:21:00,62.2,58.6,29.95,West,269,0.0,0.0,88,0.00,,OVC100,0.00,VWS V14.00,2013-05-09 04:21:00,
2013-05-08 23:26:00,62.3,58.1,29.95,West,269,0.0,0.0,86,0.00,,OVC100,0.00,VWS V14.00,2013-05-09 04:26:00,
2013-05-08 23:30:00,62.2,58.6,29.95,West,269,0.0,1.0,88,0.00,,OVC003,0.00,VWS V14.00,2013-05-09 04:30:00,
2013-05-08 23:31:00,62.4,57.8,29.95,West,269,0.0,0.0,85,0.00,,OVC100,0.00,VWS V14.00,2013-05-09 04:31:00,
2013-05-08 23:36:00,62.4,57.8,29.95,West,269,0.0,0.0,85,0.00,,OVC100,0.00,VWS V14.00,2013-05-09 04:36:00,
2013-05-08 23:41:00,62.5,58.3,29.95,West,269,0.0,0.0,86,0.00,,OVC100,0.00,VWS V14.00,2013-05-09 04:41:00,
2013-05-08 23:46:00,62.7,59.4,29.95,West,269,0.0,0.0,89,0.00,,OVC100,0.00,VWS V14.00,2013-05-09 04:46:00,
2013-05-08 23:51:00,62.7,59.7,29.95,West,269,0.0,0.0,90,0.00,,OVC100,0.00,VWS V14.00,2013-05-09 04:51:00,
2013-05-08 23:56:00,62.7,59.7,29.96,West,269,0.0,0.0,90,0.00,,OVC100,0.00,VWS V14.00,2013-05-09 04:56:00,